Regional Weather Roundup
Issued by NWS Wakefield, VA

Home | Current Version | Previous Version | Graphics & Text | Print | Product List | Glossary On
Versions: 1 2 3 4 5 6 7 8 9 10 11 12 13 14 15 16 17 18 19 20 21 22 23 24 25 26 27 28 29 30 31 32 33 34 35 36 37 38 39 40 41 42 43 44 45 46 47 48 49 50
000
ASUS41 KAKQ 231715
RWRAKQ

REGIONAL WEATHER ROUNDUP
NATIONAL WEATHER SERVICE WAKEFIELD VA
100 PM EDT SAT MAY 23 2015

Note: "fair" indicates few or no clouds below 12,000 feet with no
significant weather and/or obstructions to visibility. * = Denotes
station may not report precipitation (e.g., rain,snow,etc.),
thunder or fog.

VAZ042-051-052>054-056-231800-
NORTHERN VIRGINIA

CITY           SKY/WX    TMP DP  RH WIND       PRES   REMARKS
WASH NATIONAL  MOSUNNY   70  31  23 VRB3      30.45F
DULLES         MOSUNNY   66  32  28 VRB6      30.45F
FORT BELVOIR   SUNNY     69  31  24 VRB6      30.45F
QUANTICO       SUNNY     66  30  26 E3        30.47F
FREDERICKSBRG* SUNNY     69  34  27 CALM      30.46S
STAFFORD*      SUNNY     68  30  24 NW3       30.49F
WARRENTON      SUNNY     68  37  31 CALM      30.45F
CULPEPER*      SUNNY     67  33  28 S5        30.46F
MANASSAS*      SUNNY    N/A N/A N/A VRB5      30.46F
LEESBURG*      SUNNY     66  36  32 NW6       30.46F
WINCHESTER     SUNNY     68  30  24 SE8       30.45S
FRONT ROYAL*   FAIR      64  37  36 CALM      30.43F
LURAY*         FAIR      70  41  35 S5        30.44F
$$

VAZ048-049-060>072-079>083-231800-
CENTRAL AND SOUTH CENTRAL VIRGINIA

CITY           SKY/WX    TMP DP  RH WIND       PRES   REMARKS
RICHMOND       MOSUNNY   71  35  26 N6        30.46F
CHESTERFIELD*  NOT AVBL
PETERSBURG*    SUNNY     71  33  25 N5        30.46F
HANOVER        SUNNY     69  36  29 CALM      30.47F
TAPPAHANNOCK*  SUNNY     70  22  16 NW5       30.46F
QUINTON*       FAIR      67  33  28 CALM      30.46F
CHARLOTTSVILLE SUNNY     68  34  28 VRB3      30.45F
GORDONSVILLE*  FAIR      68  39  35 NE6       30.45F
ORANGE*        SUNNY     68  36  30 CALM      30.47F
LOUISA*        SUNNY     70  37  30 NE6       30.45F
BUMPASS*       FAIR      67  36  31 NE5       30.46F
FARMVILLE*     SUNNY     70  36  29 CALM      30.45F
CREWE*         FAIR      69  37  30 NE3       30.46F
FORT PICKETT*  NOT AVBL
CHASE CITY*    FAIR      73  44  36 SE5       30.45F
CLARKSVILLE*   FAIR      70  41  35 CALM      30.45F
SOUTH HILL*    SUNNY     69  42  36 CALM      30.51F
LAWRENCEVILLE* FAIR      70  41  35 CALM      30.45F
EMPORIA*       SUNNY     70  39  32 N7        30.46F
$$

VAZ088>098-231800-
SOUTHEAST VIRGINIA

CITY           SKY/WX    TMP DP  RH WIND       PRES   REMARKS
NORFOLK        SUNNY     68  42  38 N9        30.45F
VIRGINIA BEACH MOSUNNY   69  44  40 NE8       30.45S
NORFOLK NAVAL  MOSUNNY   71  43  36 NE12      30.47S
WEST POINT*    SUNNY     73  24  16 N6        30.47F
SALUDA*        FAIR      67  43  41 E8        30.45F
NEWPORT NEWS   SUNNY     71  43  36 E9        30.46S
LANGLEY AFB    MOSUNNY   67  44  44 NE10      30.45S
FORT EUSTIS    SUNNY     70  46  42 N6        30.43F
WILLIAMSBURG*  SUNNY     73  43  33 CALM      30.46F
HR EXEC AP*    FAIR      72  48  43 E5        30.47S
FRANKLIN*      SUNNY     73  42  33 NE5       30.45S
WAKEFIELD      SUNNY     71  39  31 N6        30.45F
$$

VAZ020-022-025-037-045-231800-
WEST CENTRAL AND SOUTHWEST VIRGINIA

CITY           SKY/WX    TMP DP  RH WIND       PRES   REMARKS
STAUNTON*      SUNNY     68  39  35 S3        30.46F
WAYNESBORO*    FAIR      66  44  44 E6        30.45F
HOT SPRINGS VA MOSUNNY   61  43  50 SW9       30.47S
LYNCHBURG      SUNNY     69  43  38 VRB5      30.47F
DANVILLE       MOSUNNY   72  44  36 VRB7      30.46F
SOUTH BOSTON*  FAIR      70  40  33 NE3       30.46F
MARTINSVILLE   SUNNY     73  45  36 SE7       30.47F
ROANOKE        MOSUNNY   69  47  45 E8        30.47F
BLACKSBURG     SUNNY     66  47  50 CALM      30.49F
DUBLIN*        MOSUNNY   69  48  47 NE3       30.47F
MARION*        SUNNY     72  42  33 S5        30.48S
HILLSVILLE*    MOSUNNY   68  46  46 S7        30.48R
RICHLANDS*     FAIR      69  44  39 SW8       30.46S
WISE*          SUNNY     72  37  28 S8G16     30.46F
ABINGDON*      SUNNY     74  38  27 W3        30.44F
$$

MDZ021>025-VAZ099-100-231800-
SOUTHERN MARYLAND AND THE DELMARVA PENINSULA

CITY           SKY/WX    TMP DP  RH WIND       PRES   REMARKS
PATUXENT RIVER MOSUNNY   65  28  24 NE7       30.46F
BAY BRIDGE APT   N/A    N/A N/A N/A CALM      30.46F
LEONARDTOWN    SUNNY     64  30  27 NE5       30.47F
DOVER          SUNNY     65  35  33 W5        30.41F
GEORGETOWN     SUNNY     65  29  25 VRB5      30.44F
EASTON         MOSUNNY   66  36  32 CALM      30.49F
CAMBRIDGE      SUNNY     66  32  28 NW9       30.45F
SALISBURY      SUNNY     66  27  23 W5        30.44F
OCEAN CITY     SUNNY     60  41  49 E8        30.46S
WALLOPS ISLAND SUNNY     64  47  53 E10       30.46S
ACCOMACK*      SUNNY     68  36  30 NW5       30.45S
$$

NCZ012>017-030>032-231800-
NORTH CENTRAL AND EASTERN NORTH CAROLINA

CITY           SKY/WX    TMP DP  RH WIND       PRES   REMARKS
ROANOKE RAPIDS FAIR      72  43  35 CALM      30.45S
RALEIGH        MOSUNNY   73  48  41 E9        30.43F
ELIZABETH CITY SUNNY     70  46  42 NE12      30.45S
AHOSKIE*       SUNNY     72  46  40 NE6       30.44F
EDENTON*       SUNNY     73  44  35 NE7       30.44S
CURRITUCK*     SUNNY     67  41  39 E9        30.46S
KILL DEVIL HLS SUNNY     65  48  54 NE8G16    30.43F
MANTEO         SUNNY     67  50  53 NE13      30.45R
CAPE HATTERAS  SUNNY     70  54  56 NE10G16   30.43R
TARBORO*       FAIR      76  49  39 NE8       30.44F
GOLDSBORO      SUNNY    N/A N/A N/A MISG        N/A
WASHINGTON     SUNNY     74  52  44 E9G16     30.43S
GREENVILLE     SUNNY     75  52  43 SE5       30.43S
NEW BERN       SUNNY     78  50  37 NE5       30.42S
WILMINGTON     SUNNY     78  43  28 E10       30.41S
$$

VAZ048-231800-
ELSEWHERE

CITY           SKY/WX    TMP DP  RH WIND       PRES   REMARKS
HARRISBURG PA  SUNNY     62  30  29 VRB3      30.43F
BALTIMORE      MOSUNNY   67  32  27 NW9       30.44F
ANNAPOLIS      SUNNY     61  37  41 SE13      30.46F
ANDREWS AFB    SUNNY     66  31  27 VRB5      30.44F
PHILADELPHIA   MOSUNNY   63  24  22 VRB5      30.44F
HENDERSON NC   SUNNY     71  38  30 NE6       30.45F
GREENSBORO     MOSUNNY   72  47  40 CALM      30.43F
ROCKY MOUNT    SUNNY     75  46  35 VRB7      30.43F
$$

VAZ100-231800-
MARINE

STATION/POSITION TIME  TEMP    WIND        PRES    WAVE   SWELL
                       AIR SEA DIR/SP/G            HT/PER HT/PER
                 (UTC) (F)     (DEG/KT/KT) (MB)    (FT/S) (FT/S)
BRANDYWINE LGT   1600   56 63  340/  8/ 12 1031.8R
CAPE MAY NJ      1600   61 66  310/  5/  9 1031.3R
LEWES DE         1600   58 62   70/  1/  3 1031.6R
15NM E FENWICK I 1650   55 59              1031.2F   3/ 5
OCEAN-CITY-INLET 1600   58 60   90/  9/ 13 1031.3S
WACHAPREAGUE VA  1600   62 66   70/  9/ 12 1031.3R
THOMAS POINT MD  1700   61 65  110/  3/  5 1032.2F
GOOSES REEF MD   1700   59 65   70/  6/  8 1032.6F   2/ 3
SOLOMONS ISLAND  1600      68                N/A
BISHOPS HEAD MD  1600   63 67   40/  6/  9 1031.1F
PINEY POINT MD   1600           40/  5/  7   N/A
CAMBRIDGE MD     1600   61 69  340/  4/  5 1031.5F
LEWISETTA VA     1600   62 68              1031.6R
RAPPAHANNOCK LGT 1600           10/  9/ 11 1032.1R
STINGRAY PT      1700   62 70   50/ 10/ 12 1030.9F   1/ 2
YORK RVR RNG VA  1600   63      60/ 13/ 16 1030.9R
YORKTOWN VA      1600   65 70   70/  4/  7 1031.2R
JAMESTOWN VA     1700   67 74  270/  2/  6 1030.3F
DOMINION TERM VA 1600   67      40/  3/  9 1031.5R
KIPTOPEKE VA     1600      72   40/  3/  6   N/A
CHES BAY BRIDGE  1600   63 67   30/  5/  7 1031.1R
CAPE HENRY VA    1600   63      60/  9/ 11 1030.2R
CHESAPEAKE LGHT  1600   59      40/ 10/ 11 1032.2R
WILLOUBY STN VA  1600   62      50/ 10/ 11 1032.2R
CAPE HENRY BUOY  1628      62                N/A     2/ 4
1ST LANDING BUOY 1700      67              1031.1R
CAPE CHARLES BUO 1626      64                N/A     2/ 4   2/ 8
OFFSHORE WE BUOY 1611      60                N/A     3/ 4   2/ 4
64NM E OF VA BCH 1650   60 60  360/ 12/ 14 1030.3R   3/ 5   2/ 8
DUCK PIER NC     1600   62 64   30/ 18/ 20 1030.1R
44100 DUCK FRF   1624      60                N/A     3/ 8
44056 DUCK FRF   1611      63                N/A     2/ 3
OREGON INLET NC  1600   65 69   20/ 12/ 17 1030.5R
HATTERAS NC      1600   69 71   30/  9/ 15 1029.7R
DIAMOND SHLS NC  1650   69 78   30/ 12/ 16 1029.7F   3/ 9   2/ 9
CAPE LOOKOUT NC  1700   71      50/ 13/ 14 1029.7R
$$



USA.gov is the U.S. government's official web portal to all federal, state and local government web resources and services.